Wind_Speed
42 43 44 44 45 46 46 46 47 47 47 47 48 47 47 47 48 47 48 49 49 48 47 46 45 44 43 42 41 40 39 38 37 36 34 34 33 32 31 30 28 28 27
43 43 44 44 44 45 45 46 47 48 48 49 48 49 49 49 49 49 49 50 51 50 49 48 47 47 45 44 44 43 41 40 39 38 36 36 35 34 33 32 30 30 29
42 43 44 44 44 44 45 46 47 48 48 48 49 49 49 49 49 49 49 50 51 52 51 50 50 49 48 46 46 45 43 42 41 40 38 37 37 36 35 34 33 32 31
42 43 43 45 44 44 45 45 46 49 49 49 49 50 50 50 50 50 50 50 51 52 52 52 52 51 50 49 47 46 46 45 44 43 41 40 38 38 37 36 35 34 33
40 41 42 44 44 44 44 45 46 47 48 49 50 51 52 50 50 51 51 52 52 52 52 53 53 52 51 51 49 48 47 46 45 44 44 42 40 39 39 38 37 37 36
38 39 40 42 43 44 44 45 45 47 48 49 50 51 52 52 51 51 52 52 53 53 53 53 53 53 53 52 51 50 50 48 46 46 45 44 43 41 40 39 38 38 38
38 38 39 41 42 43 44 45 45 46 48 48 49 50 53 52 52 52 52 52 53 53 53 54 54 54 54 54 53 52 51 51 49 47 47 46 44 43 41 40 39 39 39
36 38 39 40 42 43 44 44 45 46 47 48 50 50 52 53 52 52 52 52 52 52 52 54 55 56 55 55 55 53 52 52 51 49 48 47 45 44 43 42 41 40 40
35 37 38 39 40 42 42 43 45 46 47 48 49 50 50 52 52 51 51 52 51 52 54 54 56 56 57 56 56 55 54 54 53 52 50 50 48 46 44 43 42 42 42
34 35 37 38 38 40 41 42 44 45 46 47 47 49 49 49 50 51 50 51 51 52 54 55 55 56 56 56 56 56 55 55 55 54 53 52 50 48 47 45 44 44 44
34 33 34 35 36 38 40 41 42 44 45 46 46 48 48 48 49 49 49 51 51 51 53 55 55 56 56 56 56 56 56 55 55 55 54 54 53 51 50 48 46 45 45
34 34 34 35 36 37 39 41 42 43 44 46 46 47 48 48 49 49 49 50 50 51 52 53 54 55 56 56 56 56 56 56 56 55 55 55 55 54 53 51 49 48 47
35 35 35 34 34 35 37 39 41 43 44 45 46 47 47 47 48 49 49 48 48 50 51 52 53 54 55 56 56 56 56 56 55 55 55 54 54 54 54 53 51 49 48
36 36 36 34 34 35 36 38 40 42 43 44 45 46 47 47 47 48 48 48 48 50 52 52 53 54 55 55 55 56 56 56 56 56 56 55 54 54 54 54 53 52 51
36 36 35 35 35 36 36 37 39 41 42 43 43 44 46 46 47 47 47 47 49 50 52 53 53 53 55 55 56 56 56 56 56 55 55 55 54 55 54 54 53 53 52
35 36 35 35 35 35 36 37 38 39 40 41 43 44 45 45 46 46 46 47 47 49 51 52 53 54 54 54 54 56 57 57 57 56 54 55 55 55 55 54 54 53 53
34 34 34 34 34 35 35 36 37 39 40 41 42 43 44 44 45 46 46 47 47 48 50 51 51 52 53 54 54 56 58 57 57 56 55 55 55 56 56 56 56 55 54
33 34 33 33 34 34 35 35 36 38 40 40 41 42 43 44 45 46 47 47 47 48 50 51 52 53 53 54 54 55 57 58 58 58 57 56 55 55 55 56 56 55 55
32 33 33 33 34 34 35 35 35 36 37 38 40 41 41 43 44 45 46 46 47 47 48 51 52 52 53 54 54 55 55 56 57 58 58 57 56 56 55 55 55 56 55
31 32 33 34 34 33 33 34 35 35 37 37 38 40 41 42 43 44 44 45 47 48 48 49 51 51 52 53 53 55 56 56 56 57 58 58 57 57 57 56 56 56 56
30 31 31 32 32 31 32 33 34 36 37 37 38 38 39 40 41 43 44 44 46 47 47 48 50 50 51 50 51 53 55 56 56 57 57 58 58 58 58 58 58 58 58
30 30 30 30 30 31 31 32 34 34 35 36 37 38 39 40 40 42 43 45 45 46 47 47 47 48 49 49 50 52 54 55 56 56 56 57 57 57 57 57 59 60 59
30 30 29 29 30 31 31 32 33 33 34 35 35 36 37 38 40 41 43 44 45 46 47 47 46 47 48 48 48 49 51 54 55 56 56 56 56 57 57 56 58 59 59
30 30 29 30 30 31 31 31 32 33 33 33 34 35 35 36 37 38 39 41 43 44 45 45 45 46 46 46 47 48 50 51 53 54 55 56 57 57 56 56 56 57 58
30 30 29 29 30 30 31 31 31 31 32 32 33 33 34 35 35 36 37 38 40 41 41 42 43 44 46 47 48 48 49 50 51 52 53 55 56 56 55 55 55 56 57
30 29 29 28 28 29 29 29 30 31 31 31 31 31 31 31 32 32 33 34 36 37 39 40 42 43 44 45 46 46 47 48 49 51 52 53 54 55 55 54 54 55 56
Wind_Direction
257 257 254 252 251 250 249 248 248 248 246 245 245 245 243 243 243 242 241 241 240 241 241 240 239 240 241 241 240 241 241 242 243 243 244 245 245 247 247 247 248 249 250
259 257 255 252 251 250 249 249 249 248 248 246 245 244 243 243 244 243 242 241 241 241 241 240 239 239 240 241 241 241 242 242 243 244 244 245 245 247 247 246 247 248 249
261 258 255 252 251 250 249 249 249 248 248 247 244 243 242 242 243 243 242 242 242 242 242 241 240 239 239 240 241 242 241 242 243 244 244 245 246 247 246 246 247 248 248
262 259 256 253 251 250 249 249 248 248 248 246 244 243 243 243 243 243 242 242 243 242 242 241 239 239 239 239 240 241 241 242 242 244 245 245 246 247 247 246 247 248 248
263 260 257 254 251 250 250 249 248 248 248 247 245 243 243 243 243 243 243 243 243 243 242 241 240 239 238 238 239 240 240 241 241 243 244 245 245 247 247 246 247 248 248
265 262 258 255 252 251 250 250 248 248 248 248 247 244 243 244 244 244 244 243 243 243 242 241 240 239 238 238 238 239 239 240 241 242 243 244 245 246 247 246 246 246 247
267 263 260 257 253 252 252 250 248 248 248 249 248 247 244 244 245 245 245 245 244 243 241 240 239 239 238 238 238 239 239 240 240 242 242 243 244 245 246 246 245 245 246
270 266 263 259 255 253 252 250 248 248 249 249 248 247 245 243 244 246 246 245 244 243 241 240 238 238 238 238 238 238 239 239 240 241 242 242 242 244 244 245 246 246 245
272 269 264 260 256 253 252 250 248 249 250 250 248 247 246 245 244 245 245 244 242 242 241 240 238 238 238 238 237 238 239 239 239 240 241 241 241 243 244 245 246 246 245
273 270 265 262 258 253 251 250 249 250 251 250 249 247 246 244 242 243 242 242 241 242 241 240 239 239 239 239 238 239 239 240 239 239 240 241 240 241 243 244 245 246 246
274 271 267 264 261 256 253 252 252 250 250 249 247 246 246 245 244 243 242 240 240 242 241 240 239 239 240 239 238 238 239 239 239 239 240 241 241 241 243 244 244 246 247
277 274 270 267 264 260 255 255 254 251 251 250 249 248 247 246 245 243 242 240 241 241 241 240 239 239 239 238 238 238 238 239 239 239 240 241 242 242 242 243 245 246 247
277 274 272 269 266 263 259 257 255 252 251 250 249 248 248 247 245 244 243 243 244 243 241 241 239 238 238 237 237 238 239 239 239 240 240 241 242 243 243 243 244 246 247
279 276 273 270 270 267 262 258 256 254 252 251 250 249 249 248 247 246 244 245 245 244 241 241 238 237 236 236 236 237 239 239 240 241 241 242 242 243 243 244 245 246 247
280 276 272 272 271 269 264 261 257 255 253 252 251 250 249 249 248 248 247 248 248 245 243 241 239 238 237 237 236 236 238 239 239 240 241 243 243 244 244 245 246 247 247
281 276 273 273 271 270 267 261 257 255 254 252 251 251 249 249 249 249 250 250 250 248 245 242 241 239 238 238 238 238 238 238 239 240 241 243 243 244 245 246 247 247 247
282 278 276 276 273 270 266 263 260 257 255 253 252 251 250 250 250 250 250 251 251 248 246 245 244 242 241 240 241 241 239 239 240 241 242 243 244 245 245 246 247 248 248
282 279 277 276 273 270 266 266 263 259 257 255 253 252 252 252 252 252 251 251 250 248 246 245 245 245 245 244 243 242 242 241 241 241 242 244 245 246 245 247 247 247 247
285 281 279 277 276 273 267 265 263 261 258 256 255 255 254 253 253 253 252 250 249 248 246 246 247 247 246 245 244 243 243 242 242 242 243 243 245 245 246 247 247 247 249
289 285 281 279 277 274 270 266 263 262 260 259 257 257 256 255 254 253 251 250 248 248 248 248 248 248 247 247 246 245 244 243 242 242 243 244 245 245 245 246 247 248 249
290 287 284 281 279 277 272 269 265 263 262 261 260 258 257 256 255 253 250 248 249 248 248 248 248 247 247 247 246 246 245 242 242 241 243 244 243 243 244 246 247 248 249
293 290 287 283 281 279 277 273 268 265 264 263 262 261 260 258 256 254 252 250 249 248 248 248 248 247 247 247 247 246 245 244 243 243 243 243 243 243 245 246 248 249 249
296 293 289 285 283 281 279 275 270 268 266 265 263 262 261 259 258 256 254 253 251 249 249 249 249 248 248 248 248 246 246 246 245 244 244 243 243 244 245 246 247 248 248
297 295 292 287 284 281 279 277 272 269 268 266 264 263 262 260 258 256 255 254 252 249 248 248 249 248 248 248 248 247 247 247 246 246 245 244 244 245 244 245 246 246 246
296 295 293 291 287 283 280 278 275 272 270 268 266 264 262 259 257 256 255 253 252 251 249 248 248 248 247 248 249 249 248 248 247 246 246 246 246 246 244 245 245 245 246
297 295 292 291 289 286 283 281 278 275 273 270 267 264 261 258 257 256 255 254 252 250 249 250 249 248 247 247 247 248 248 247 247 247 247 247 246 246 245 245 245 245 246
Height
5682 5684 5686 5688 5691 5694 5697 5700 5702 5705 5708 5712 5715 5719 5723 5727 5732 5736 5740 5744 5749 5754 5758 5763 5767 5772 5776 5780 5784 5788 5791 5795 5798 5801 5804 5807 5810 5812 5815 5817 5819 5821 5824
5670 5671 5673 5675 5678 5680 5684 5687 5690 5693 5696 5700 5703 5707 5711 5716 5720 5724 5728 5732 5737 5742 5747 5752 5756 5761 5766 5770 5774 5778 5782 5785 5789 5793 5795 5798 5802 5804 5807 5810 5812 5815 5817
5657 5658 5660 5662 5665 5668 5671 5674 5677 5680 5683 5687 5691 5695 5698 5703 5707 5712 5716 5720 5724 5729 5734 5740 5745 5750 5755 5760 5764 5768 5772 5776 5780 5783 5787 5790 5793 5796 5799 5802 5805 5807 5810
5645 5646 5647 5650 5652 5655 5658 5661 5664 5667 5670 5674 5678 5682 5686 5691 5696 5700 5704 5708 5712 5717 5722 5727 5732 5738 5743 5748 5752 5756 5761 5765 5769 5773 5777 5781 5784 5787 5791 5794 5797 5799 5802
5633 5633 5635 5637 5640 5642 5645 5648 5651 5653 5657 5661 5665 5670 5674 5679 5683 5687 5692 5696 5700 5704 5709 5714 5720 5725 5731 5736 5741 5745 5749 5754 5758 5762 5766 5770 5774 5777 5781 5785 5788 5791 5794
5621 5622 5623 5625 5628 5630 5633 5636 5638 5641 5645 5649 5652 5657 5661 5666 5670 5674 5679 5683 5687 5691 5696 5701 5707 5713 5718 5723 5728 5733 5738 5743 5747 5751 5756 5759 5763 5767 5771 5775 5779 5782 5785
5611 5611 5612 5614 5616 5617 5620 5623 5626 5629 5633 5636 5639 5644 5648 5652 5657 5661 5666 5670 5674 5679 5683 5689 5694 5699 5704 5710 5716 5721 5726 5731 5736 5740 5745 5749 5753 5757 5761 5764 5768 5772 5776
5601 5600 5601 5601 5603 5605 5607 5610 5614 5617 5620 5623 5626 5631 5635 5639 5643 5648 5652 5656 5661 5666 5670 5675 5681 5686 5691 5697 5703 5709 5714 5719 5724 5729 5733 5737 5742 5746 5750 5754 5758 5762 5766
5591 5590 5589 5589 5590 5592 5595 5598 5602 5605 5608 5610 5613 5616 5621 5625 5629 5634 5639 5643 5648 5652 5657 5662 5667 5673 5678 5684 5690 5696 5701 5706 5711 5716 5721 5726 5731 5735 5739 5743 5748 5752 5756
5581 5580 5580 5579 5579 5581 5584 5587 5589 5592 5596 5598 5601 5604 5608 5612 5616 5621 5626 5630 5635 5639 5644 5649 5654 5660 5665 5671 5677 5682 5688 5693 5698 5704 5709 5714 5719 5724 5728 5732 5737 5741 5745
5572 5571 5570 5570 5570 5571 5573 5576 5578 5581 5584 5586 5589 5593 5596 5600 5604 5608 5613 5617 5622 5626 5631 5636 5641 5646 5652 5657 5663 5669 5675 5680 5686 5691 5696 5702 5707 5712 5717 5721 5725 5730 5734
5563 5562 5561 5561 5561 5561 5563 5565 5567 5569 5572 5575 5578 5581 5585 5589 5592 5596 5600 5604 5609 5614 5618 5622 5628 5633 5638 5644 5650 5656 5662 5668 5673 5679 5684 5690 5695 5700 5705 5710 5714 5719 5723
5554 5553 5552 5552 5552 5552 5554 5555 5556 5558 5560 5563 5566 5570 5573 5577 5581 5584 5588 5592 5596 5601 5605 5610 5615 5619 5625 5631 5637 5643 5649 5654 5660 5666 5672 5677 5682 5687 5692 5697 5702 5707 5711
5546 5544 5543 5543 5543 5543 5544 5544 5546 5547 5549 5552 5555 5558 5562 5565 5569 5573 5576 5580 5584 5588 5592 5597 5601 5606 5612 5618 5624 5630 5636 5642 5647 5653 5659 5664 5670 5675 5680 5685 5690 5695 5699
5537 5535 5534 5534 5534 5534 5534 5534 5535 5537 5539 5541 5544 5547 5551 5554 5557 5561 5565 5568 5572 5575 5579 5584 5589 5594 5599 5605 5611 5617 5623 5629 5635 5640 5646 5651 5657 5663 5667 5673 5678 5682 5687
5528 5526 5525 5525 5524 5524 5524 5524 5525 5526 5528 5531 5533 5537 5540 5543 5547 5550 5554 5557 5560 5563 5566 5571 5576 5581 5586 5591 5597 5603 5609 5615 5621 5627 5633 5639 5644 5650 5655 5660 5665 5670 5675
5520 5518 5517 5516 5515 5515 5514 5515 5515 5517 5519 5521 5523 5526 5529 5532 5536 5539 5542 5545 5548 5551 5554 5558 5563 5568 5573 5578 5583 5589 5595 5601 5608 5614 5619 5625 5631 5636 5641 5646 5651 5657 5662
5511 5510 5508 5508 5507 5506 5505 5505 5506 5507 5508 5510 5513 5515 5518 5521 5524 5526 5529 5532 5535 5539 5543 5547 5551 5556 5561 5565 5570 5575 5580 5587 5594 5600 5606 5612 5617 5622 5627 5632 5638 5643 5648
5503 5501 5500 5498 5498 5497 5496 5496 5496 5497 5499 5500 5502 5504 5506 5509 5511 5514 5517 5520 5523 5527 5530 5534 5538 5543 5548 5552 5556 5561 5566 5572 5579 5585 5591 5597 5603 5609 5614 5619 5624 5630 5634
5495 5493 5491 5490 5489 5488 5487 5487 5487 5488 5489 5490 5491 5493 5494 5497 5499 5502 5504 5507 5510 5514 5518 5521 5526 5530 5534 5538 5542 5547 5552 5559 5565 5570 5576 5583 5589 5594 5598 5604 5609 5615 5620
5487 5485 5483 5481 5480 5479 5478 5478 5478 5478 5479 5480 5481 5482 5483 5485 5487 5489 5492 5495 5498 5501 5505 5509 5513 5517 5521 5525 5529 5533 5538 5544 5550 5555 5561 5567 5573 5579 5584 5589 5595 5600 5606
5479 5476 5474 5473 5471 5470 5469 5468 5468 5468 5469 5469 5470 5471 5472 5474 5475 5477 5480 5483 5486 5489 5492 5496 5500 5503 5507 5511 5515 5519 5524 5529 5534 5541 5547 5552 5558 5563 5569 5574 5580 5585 5590
5471 5468 5466 5464 5463 5461 5460 5459 5458 5458 5458 5459 5460 5461 5462 5463 5464 5466 5468 5471 5473 5476 5479 5483 5487 5490 5494 5498 5502 5506 5510 5514 5520 5525 5532 5537 5543 5548 5554 5559 5565 5569 5574
5463 5460 5457 5456 5454 5452 5450 5449 5448 5448 5448 5449 5449 5450 5451 5452 5453 5454 5456 5458 5461 5464 5467 5471 5474 5478 5481 5485 5489 5492 5496 5501 5505 5511 5516 5522 5527 5532 5538 5544 5549 5554 5559
5455 5452 5449 5447 5445 5443 5441 5440 5439 5439 5439 5439 5439 5439 5440 5441 5442 5444 5446 5447 5450 5452 5456 5459 5462 5466 5470 5473 5476 5479 5484 5488 5492 5497 5502 5507 5512 5517 5523 5529 5534 5539 5544
5446 5443 5440 5438 5436 5434 5433 5431 5430 5429 5429 5429 5429 5430 5430 5431 5432 5434 5436 5437 5439 5441 5444 5447 5450 5453 5457 5460 5463 5466 5470 5474 5478 5483 5488 5493 5498 5503 5509 5514 5519 5524 5529